Weather History for Clyde, NU

Change the Weather History Date:

Sunday, September 30, 2012

  Actual Average Record
Temperature  
Mean Temperature 34 °F -  
Max Temperature 36 °F 24 °F 37 °F (2001)
Min Temperature 32 °F 13 °F 14 °F (2014)
Degree Days  
Heating Degree Days 31    
Moisture  
Dew Point 35 °F    
Average Humidity 100    
Maximum Humidity 100    
Minimum Humidity 83    
Precipitation  
Precipitation 0.00 in 0.05 in - ()
Sea Level Pressure  
Sea Level Pressure 29.47 in    
Wind  
Wind Speed 16 mph ()    
Max Wind Speed 23 mph    
Max Gust Speed 30 mph    
Visibility 4.5 miles    
Events Rain    
Averages and records for this station are not official NWS values.
T = Trace of Precipitation, MM = Missing Value Source: Averaged Metar Reports

Daily Weather History Graph

Daily Weather History Graph

Search for Another Location

Airport:

Trip Planner

Search our weather history database for the weather conditions in past years. The results will help you decide how hot, cold, wet, or windy it might be!

Date:

Astronomy

Sep. 30, 2012 Rise Set
Actual Time 7:48 AM ADT 6:57 PM ADT
Civil Twilight 6:46 AM ADT 7:59 PM ADT
Nautical Twilight 5:30 AM ADT 9:13 PM ADT
Astronomical Twilight 3:59 AM ADT 10:43 PM ADT
Moon 5:58 PM ADT (9/30) 9:05 AM ADT (9/30)
Length of Visible Light 13h 12m
Length of Day
11h 08m
Full, 100% of the Moon is Illuminated
Sep 30
Full
Oct 8
Last Quarter
Oct 15
New
Oct 22
First Quarter
Oct 29
Full

Hourly Weather History & Observations

Time (ADT) Temp. Windchill Dew Point Humidity Pressure Visibility Wind Dir Wind Speed Gust Speed Precip Events Conditions
12:00 AM 35 °F - 32 °F 83% 29.23 in 9 mi NW 10.4 mph - -   Overcast
12:00 AM 35.6 °F 27.5 °F 32.0 °F 87% 29.23 in 9.0 mi NW 11.5 mph - N/A   Overcast
1:00 AM 35.6 °F 27.5 °F 32.0 °F 87% 29.24 in 9.0 mi WNW 11.5 mph - N/A   Overcast
2:00 AM 33.8 °F 22.8 °F 33.8 °F 100% 29.26 in 9.0 mi NW 18.4 mph - N/A   Mostly Cloudy
2:10 AM 33.8 °F 23.2 °F 33.8 °F 100% 29.25 in 9.0 mi NW 17.3 mph - N/A   Overcast
2:22 AM 33.8 °F 23.2 °F 33.8 °F 100% 29.25 in 9.0 mi NW 17.3 mph - N/A   Overcast
2:26 AM 33.8 °F 22.8 °F 33.8 °F 100% 29.26 in 7.0 mi NW 18.4 mph - N/A   Overcast
2:27 AM 33.8 °F 22.8 °F 33.8 °F 100% 29.26 in 5.0 mi NW 18.4 mph - N/A   Overcast
2:31 AM 33.8 °F 23.2 °F 33.8 °F 100% 29.26 in 2.4 mi NW 17.3 mph - N/A   Overcast
2:44 AM 33.8 °F 23.9 °F 33.8 °F 100% 29.26 in 1.4 mi NW 15.0 mph - N/A   Overcast
2:53 AM 33.8 °F 21.9 °F 33.8 °F 100% 29.26 in 3.0 mi NW 21.9 mph - N/A   Mostly Cloudy
3:00 AM 33 °F - 33 °F 100% 29.28 in 3 mi NW 21.9 mph - -   Overcast
3:00 AM 33.8 °F 21.9 °F 33.8 °F 100% 29.28 in 3.5 mi NW 21.9 mph - N/A   Overcast
3:14 AM 33.8 °F 23.2 °F 33.8 °F 100% 29.28 in 2.4 mi NNW 17.3 mph - N/A   Mostly Cloudy
3:17 AM 33.8 °F 23.2 °F 33.8 °F 100% 29.28 in 1.1 mi NNW 17.3 mph - N/A   Mostly Cloudy
3:20 AM 33.8 °F 23.5 °F 33.8 °F 100% 29.29 in 1.0 mi NNW 16.1 mph - N/A   Overcast
3:23 AM 33.8 °F 22.5 °F 33.8 °F 100% 29.29 in 0.6 mi NNW 19.6 mph - N/A   Overcast
3:38 AM 33.8 °F 23.5 °F 33.8 °F 100% 29.29 in 1.0 mi NNW 16.1 mph 21.9 mph N/A   Overcast
4:00 AM 33.8 °F 23.5 °F 33.8 °F 100% 29.31 in 1.2 mi NNW 16.1 mph - N/A   Overcast
4:06 AM 32.0 °F 20.5 °F 32.0 °F 100% 29.30 in 1.0 mi NNW 18.4 mph - N/A   Overcast
4:16 AM 33.8 °F 21.9 °F 33.8 °F 100% 29.30 in 1.5 mi NNW 21.9 mph - N/A   Overcast
4:19 AM 33.8 °F 22.2 °F 33.8 °F 100% 29.30 in 2.5 mi NNW 20.7 mph - N/A   Mostly Cloudy
4:29 AM 33.8 °F 22.8 °F 33.8 °F 100% 29.31 in 4.0 mi NNW 18.4 mph 24.2 mph N/A   Overcast
4:31 AM 33.8 °F 23.2 °F 33.8 °F 100% 29.31 in 3.0 mi NNW 17.3 mph 24.2 mph N/A   Overcast
4:32 AM 33.8 °F 23.2 °F 33.8 °F 100% 29.31 in 2.1 mi NNW 17.3 mph 24.2 mph N/A   Overcast
4:36 AM 33.8 °F 23.2 °F 33.8 °F 100% 29.31 in 1.4 mi NNW 17.3 mph - N/A   Overcast
4:41 AM 33.8 °F 23.2 °F 33.8 °F 100% 29.31 in 1.4 mi NNW 17.3 mph - N/A   Overcast
4:47 AM 33.8 °F 22.8 °F 33.8 °F 100% 29.31 in 3.0 mi NW 18.4 mph - N/A   Overcast
4:55 AM 33.8 °F 23.2 °F 33.8 °F 100% 29.32 in 3.0 mi NW 17.3 mph - N/A   Overcast
4:56 AM 33.8 °F 23.2 °F 33.8 °F 100% 29.32 in 2.4 mi NW 17.3 mph - N/A   Overcast
5:00 AM 33.8 °F 23.5 °F 33.8 °F 100% 29.33 in 2.1 mi NW 16.1 mph - N/A   Unknown
5:04 AM 33.8 °F 23.5 °F 33.8 °F 100% 29.32 in 2.4 mi NW 16.1 mph - N/A   Overcast
5:15 AM 33.8 °F 23.2 °F 33.8 °F 100% 29.32 in 1.5 mi NW 17.3 mph - N/A   Overcast
5:20 AM 33.8 °F 23.2 °F 33.8 °F 100% 29.32 in 2.2 mi NNW 17.3 mph - N/A   Overcast
5:27 AM 33.8 °F 22.8 °F 33.8 °F 100% 29.33 in 2.5 mi NW 18.4 mph - N/A   Overcast
5:36 AM 33.8 °F 22.8 °F 33.8 °F 100% 29.33 in 1.4 mi NW 18.4 mph - N/A   Overcast
5:54 AM 33.8 °F 23.2 °F 33.8 °F 100% 29.34 in 1.4 mi NW 17.3 mph - N/A   Overcast
6:00 AM 34 °F - 34 °F 100% 29.35 in 2 mi NW 16.1 mph - -   Overcast
6:00 AM 33.8 °F 23.9 °F 33.8 °F 100% 29.35 in 2.5 mi NW 15.0 mph - N/A   Overcast
6:04 AM 33.8 °F 23.5 °F 33.8 °F 100% 29.34 in 2.0 mi NW 16.1 mph - N/A   Overcast
6:09 AM 33.8 °F 23.9 °F 33.8 °F 100% 29.34 in 1.4 mi NW 15.0 mph - N/A   Overcast
6:10 AM 33.8 °F 23.9 °F 33.8 °F 100% 29.34 in 1.2 mi NW 15.0 mph - N/A   Overcast
6:18 AM 33.8 °F 23.2 °F 33.8 °F 100% 29.34 in 1.4 mi NW 17.3 mph - N/A   Overcast
6:20 AM 33.8 °F 23.2 °F 33.8 °F 100% 29.34 in 3.5 mi NW 17.3 mph - N/A   Light Drizzle
6:22 AM 33.8 °F 23.2 °F 33.8 °F 100% 29.34 in 5.0 mi NW 17.3 mph - N/A   Scattered Clouds
6:26 AM 33.8 °F 23.2 °F 33.8 °F 100% 29.34 in 8.0 mi NW 17.3 mph - N/A   Mostly Cloudy
6:29 AM 33.8 °F 22.8 °F 33.8 °F 100% 29.34 in 9.0 mi NW 18.4 mph - N/A   Overcast
6:47 AM 33.8 °F 23.5 °F 33.8 °F 100% 29.35 in 2.5 mi NW 16.1 mph - N/A   Overcast
7:00 AM 33.8 °F 23.5 °F 33.8 °F 100% 29.37 in 6.0 mi NW 16.1 mph - N/A   Light Drizzle
8:00 AM 33.8 °F 23.2 °F 33.8 °F 100% 29.39 in 4.0 mi NW 17.3 mph - N/A   Light Drizzle
9:00 AM 35 °F - 35 °F 99% 29.42 in 9 mi NW 16.1 mph - -   Overcast
9:00 AM 35.6 °F 26.2 °F 35.6 °F 100% 29.42 in 4.0 mi NW 15.0 mph - N/A   Light Drizzle
10:00 AM 35.6 °F 26.6 °F 35.6 °F 100% 29.44 in 10.0 mi NW 13.8 mph - N/A   Light Drizzle
11:00 AM 35.6 °F 24.5 °F 33.8 °F 93% 29.47 in 10.0 mi NNW 20.7 mph - N/A   Light Drizzle
12:00 PM 36 °F - 36 °F 98% 29.49 in 5 mi NNW 12.7 mph - -   Overcast
12:00 PM 35.6 °F 26.6 °F 35.6 °F 100% 29.49 in 5.0 mi NNW 13.8 mph - N/A   Light Drizzle
1:00 PM 35.6 °F 26.2 °F 35.6 °F 100% 29.50 in 6.0 mi WNW 15.0 mph - N/A   Light Drizzle
1:43 PM - - - N/A% - 15.0 mi NW 17.3 mph - N/A   Overcast
2:00 PM 35.6 °F 25.5 °F 35.6 °F 100% 29.52 in 15.0 mi WNW 17.3 mph - N/A   Overcast
2:27 PM - - - N/A% - 10.0 mi NW 17.3 mph - N/A   Light Drizzle
3:00 PM 36 °F - 36 °F 98%  in 6 mi NW 18.4 mph - -   Overcast
3:00 PM 35.6 °F 24.8 °F 35.6 °F 100% 29.53 in 6.0 mi WNW 19.6 mph - N/A   Light Drizzle
4:00 PM 35.6 °F 26.2 °F 35.6 °F 100% 29.55 in 15.0 mi NW 15.0 mph - N/A   Light Drizzle
4:32 PM 35.6 °F 25.2 °F 35.6 °F 100% 29.54 in 9.0 mi NW 18.4 mph - N/A   Mostly Cloudy
4:46 PM 35.6 °F 25.2 °F 35.6 °F 100% 29.55 in 2.5 mi NW 18.4 mph - N/A   Overcast
5:00 PM 35.6 °F 24.8 °F 35.6 °F 100% 29.57 in 2.2 mi NW 19.6 mph - N/A   Overcast
5:30 PM 35.6 °F 24.0 °F 35.6 °F 100% 29.56 in 2.5 mi NW 23.0 mph 29.9 mph N/A   Light Drizzle
5:31 PM 35.6 °F 24.2 °F 35.6 °F 100% 29.56 in 2.5 mi NW 21.9 mph 29.9 mph N/A Rain Light Rain
5:43 PM 35.6 °F 24.2 °F 35.6 °F 100% 29.56 in 3.5 mi NW 21.9 mph 27.6 mph N/A Rain Light Rain
5:48 PM 35.6 °F 24.2 °F 35.6 °F 100% 29.57 in 2.4 mi NW 21.9 mph 27.6 mph N/A Rain Light Rain
5:50 PM 35.6 °F 24.5 °F 35.6 °F 100% 29.57 in 2.0 mi NW 20.7 mph - N/A   Overcast
5:58 PM 35.6 °F 24.8 °F 35.6 °F 100% 29.57 in 1.5 mi NW 19.6 mph - N/A   Overcast
5:59 PM 35.6 °F 24.8 °F 35.6 °F 100% 29.57 in 1.6 mi NW 19.6 mph - N/A   Overcast
6:00 PM 35 °F - 35 °F 100% 29.58 in 2 mi NW 19.6 mph - -   Overcast
6:00 PM 35.6 °F 24.8 °F 35.6 °F 100% 29.58 in 1.8 mi NW 19.6 mph - N/A   Overcast
6:16 PM 35.6 °F 25.2 °F 35.6 °F 100% 29.57 in 6.0 mi NW 18.4 mph - N/A   Overcast
6:21 PM 35.6 °F 24.8 °F 35.6 °F 100% 29.58 in 6.0 mi NW 19.6 mph - N/A   Overcast
7:00 PM 35.6 °F 24.8 °F 35.6 °F 100% 29.60 in 9.0 mi NNW 19.6 mph - N/A   Overcast
7:29 PM 35.6 °F 25.2 °F 35.6 °F 100% 29.60 in 2.5 mi NNW 18.4 mph 25.3 mph N/A   Overcast
7:50 PM 35.6 °F 24.8 °F 35.6 °F 100% 29.61 in 1.5 mi NW 19.6 mph - N/A Rain Light Rain
7:52 PM 35.6 °F 25.2 °F 35.6 °F 100% 29.61 in 1.5 mi NW 18.4 mph - N/A Rain Light Rain
7:55 PM 35.6 °F 24.8 °F 35.6 °F 100% 29.61 in 1.5 mi NNW 19.6 mph - N/A Rain Light Rain
8:00 PM 35.6 °F 25.2 °F 35.6 °F 100% 29.62 in 1.6 mi NW 18.4 mph - N/A Rain Light Rain
8:04 PM 35.6 °F 24.8 °F 35.6 °F 100% 29.61 in 1.6 mi NNW 19.6 mph - N/A Rain Light Rain
8:18 PM 35.6 °F 24.8 °F 35.6 °F 100% 29.62 in 1.4 mi NW 19.6 mph - N/A Rain Light Rain
8:20 PM 35.6 °F 24.8 °F 35.6 °F 100% 29.62 in 1.4 mi NW 19.6 mph - N/A Rain Light Rain
8:26 PM 35.6 °F 24.2 °F 35.6 °F 100% 29.62 in 1.4 mi NW 21.9 mph - N/A Rain Light Rain
8:35 PM 35.6 °F 24.8 °F 35.6 °F 100% 29.63 in 3.0 mi NW 19.6 mph - N/A Rain Light Rain
8:38 PM 35.6 °F 25.2 °F 35.6 °F 100% 29.63 in 3.5 mi NW 18.4 mph - N/A Rain Light Rain
8:40 PM 35.6 °F 24.8 °F 35.6 °F 100% 29.63 in 3.5 mi NW 19.6 mph - N/A Rain Light Rain
8:42 PM 35.6 °F 25.2 °F 35.6 °F 100% 29.63 in 2.2 mi NW 18.4 mph - N/A Rain Light Rain
8:45 PM 35.6 °F 25.2 °F 35.6 °F 100% 29.63 in 1.4 mi NW 18.4 mph - N/A Rain Light Rain
8:50 PM 35.6 °F 25.9 °F 35.6 °F 100% 29.63 in 1.0 mi NNW 16.1 mph 21.9 mph N/A Rain Light Rain
8:57 PM 35.6 °F 25.5 °F 35.6 °F 100% 29.64 in 1.0 mi NNW 17.3 mph - N/A Rain Light Rain
8:58 PM 35.6 °F 25.5 °F 35.6 °F 100% 29.64 in 1.0 mi NNW 17.3 mph - N/A Rain Light Rain
8:59 PM 35.6 °F 25.9 °F 35.6 °F 100% 29.64 in 1.0 mi NNW 16.1 mph - N/A Rain Light Rain
9:00 PM 35 °F - 35 °F 100% 29.65 in 1 mi NNW 16.1 mph - -  
9:00 PM 35.6 °F 26.2 °F 35.6 °F 100% 29.65 in 1.2 mi NNW 15.0 mph - N/A Rain Light Rain
9:01 PM 35.6 °F 26.2 °F 35.6 °F 100% 29.64 in 1.4 mi NNW 15.0 mph - N/A Rain Light Rain
9:06 PM 35.6 °F 27.1 °F 35.6 °F 100% 29.64 in 3.5 mi NNW 12.7 mph 19.6 mph N/A Rain Light Rain
9:35 PM 35.6 °F 27.5 °F 35.6 °F 100% 29.65 in 7.0 mi North 11.5 mph - N/A Rain Light Rain
9:54 PM 35.6 °F 28.0 °F 35.6 °F 100% 29.66 in 9.0 mi NNW 10.4 mph - N/A Rain Light Rain
9:57 PM 35.6 °F 28.0 °F 35.6 °F 100% 29.66 in 9.0 mi NNW 10.4 mph - N/A   Overcast
10:00 PM 35.6 °F 28.0 °F 35.6 °F 100% 29.68 in 9.0 mi NNW 10.4 mph - N/A   Overcast
10:06 PM 35.6 °F 28.0 °F 35.6 °F 100% 29.66 in 9.0 mi NNW 10.4 mph - N/A Rain Light Rain
10:19 PM 35.6 °F 28.6 °F 35.6 °F 100% 29.67 in 4.0 mi North 9.2 mph - N/A Rain Light Rain
10:21 PM 35.6 °F 28.6 °F 35.6 °F 100% 29.67 in 7.0 mi North 9.2 mph - N/A Rain Light Rain
10:32 PM 35.6 °F 28.0 °F 35.6 °F 100% 29.67 in 9.0 mi North 10.4 mph - N/A   Overcast
10:34 PM 35.6 °F 28.6 °F 35.6 °F 100% 29.67 in 9.0 mi North 9.2 mph - N/A   Overcast
10:46 PM 35.6 °F 28.0 °F 35.6 °F 100% 29.68 in 9.0 mi North 10.4 mph - N/A Rain Light Rain
10:47 PM 35.6 °F 28.0 °F 35.6 °F 100% 29.68 in 9.0 mi North 10.4 mph - N/A   Overcast
10:48 PM 35.6 °F 28.0 °F 35.6 °F 100% 29.68 in 9.0 mi North 10.4 mph - N/A Rain Light Rain
10:53 PM 35.6 °F 28.0 °F 35.6 °F 100% 29.68 in 9.0 mi North 10.4 mph - N/A Rain Light Rain
10:59 PM 35.6 °F 28.0 °F 35.6 °F 100% 29.68 in 9.0 mi North 10.4 mph - N/A Rain Light Rain
11:00 PM 35.6 °F 28.0 °F 35.6 °F 100% 29.70 in 9.0 mi North 10.4 mph - N/A   Overcast
11:09 PM 35.6 °F 28.6 °F 35.6 °F 100% 29.69 in 9.0 mi North 9.2 mph - N/A   Overcast
11:36 PM 35.6 °F 29.2 °F 35.6 °F 100% 29.70 in 9.0 mi North 8.1 mph - N/A Rain Light Rain
11:50 PM 35.6 °F 28.0 °F 35.6 °F 100% 29.70 in 9.0 mi North 10.4 mph - N/A Rain Light Rain